User: anonymous   Login
Location: Sweet Grass
(48.9965°N, 111.9649°W)
Time: 02:14:54
(UTC+00:00)
Language:

Oscar 11 - Orbit

View from above orbital plane
View from above orbital plane
View from above satellite
View from above satellite

Ground track
Ground track

The orbit data is extracted from the following two-line orbital elements,

1 14781U 84021B   23084.49059946  .00004047  00000-0  48535-3 0  9992
2 14781  97.6511  64.7179 0009833 112.5651 247.6606 14.84547809102723
Epoch (UTC): 25 March 2023 11:46:27
Eccentricity: 0.0009833
inclination: 97.6511°
perigee height: 608 km
apogee height: 622 km
right ascension of ascending node: 64.7179°
argument of perigee: 112.5651°
revolutions per day: 14.84547809
mean anomaly at epoch: 247.6606°
orbit number at epoch: 10272

The dashed part of the orbit path shows where the satellite is in the earth's shadow,  

DLR